{"data":{"norad_id":36414,"epoch":"2026-09-20T03:32:20.249376Z","epoch_age_seconds":48751,"freshness":"FRESH","line1":"1 36414U 10009B   26263.14745659 -.00000016  00000+0  52439-4 0  9992","line2":"2 36414  63.3628 112.0920 0546436  21.6659 340.6549 13.45725525812528","mean_motion":13.45725525,"eccentricity":0.0546436,"inclination_deg":63.3628,"raan_deg":112.092,"arg_perigee_deg":21.6659,"mean_anomaly_deg":340.6549,"bstar":5.2439e-5,"rev_number":81252,"period_min":107.00547572656,"perigee_km":680.04874829685,"apogee_km":1496.0048866498,"semimajor_km":7466.1638174733,"source":"CELESTRAK","updated_at":"2026-09-20T09:00:13.747971Z"}}